Time,TemperatureF,DewpointF,PressureIn,WindDirection,WindDirectionDegrees,WindSpeedMPH,WindSpeedGustMPH,Humidity,HourlyPrecipIn,Conditions,Clouds,dailyrainin,SoftwareType,DateUTC
2013-02-17 00:01:00,41.0,17.0,-100.00,NNE,28,3.0,5.0,38,-99.99,,,-99.99,,2013-02-17 08:01:00,
2013-02-17 00:11:00,40.0,18.0,-100.00,North,9,4.0,6.0,40,-99.99,,,-99.99,,2013-02-17 08:11:00,
2013-02-17 00:21:00,41.0,17.0,-100.00,NNE,28,4.0,7.0,37,-99.99,,,-99.99,,2013-02-17 08:21:00,
2013-02-17 00:31:00,42.0,16.0,-100.00,North,356,3.0,7.0,34,-99.99,,,-99.99,,2013-02-17 08:31:00,
2013-02-17 00:41:00,41.0,16.0,-100.00,NE,42,2.0,6.0,36,-99.99,,,-99.99,,2013-02-17 08:41:00,
2013-02-17 00:52:00,39.0,17.0,-100.00,NE,37,2.0,5.0,40,-99.99,,,-99.99,,2013-02-17 08:52:00,
2013-02-17 01:01:00,39.0,17.0,-100.00,NE,37,2.0,5.0,40,-99.99,,,-99.99,,2013-02-17 09:01:00,
2013-02-17 01:11:00,40.0,16.0,-100.00,NE,46,2.0,4.0,38,-99.99,,,-99.99,,2013-02-17 09:11:00,
2013-02-17 01:21:00,40.0,17.0,-100.00,NE,40,2.0,5.0,39,-99.99,,,-99.99,,2013-02-17 09:21:00,
2013-02-17 01:31:00,39.0,17.0,-100.00,South,171,1.0,4.0,40,-99.99,,,-99.99,,2013-02-17 09:31:00,
2013-02-17 01:41:00,39.0,17.0,-100.00,East,89,1.0,3.0,40,-99.99,,,-99.99,,2013-02-17 09:41:00,
2013-02-17 01:51:00,38.0,17.0,-100.00,NNE,22,2.0,3.0,42,-99.99,,,-99.99,,2013-02-17 09:51:00,
2013-02-17 02:01:00,39.0,17.0,-100.00,North,9,1.0,3.0,40,-99.99,,,-99.99,,2013-02-17 10:01:00,
2013-02-17 02:11:00,38.0,16.0,-100.00,NNE,27,2.0,3.0,41,-99.99,,,-99.99,,2013-02-17 10:11:00,
2013-02-17 02:21:00,38.0,16.0,-100.00,NE,44,3.0,4.0,40,-99.99,,,-99.99,,2013-02-17 10:21:00,
2013-02-17 02:31:00,38.0,16.0,-100.00,NE,44,3.0,4.0,40,-99.99,,,-99.99,,2013-02-17 10:31:00,
2013-02-17 02:41:00,39.0,16.0,-100.00,ENE,70,2.0,5.0,38,-99.99,,,-99.99,,2013-02-17 10:41:00,
2013-02-17 02:51:00,38.0,16.0,-100.00,North,10,2.0,5.0,40,-99.99,,,-99.99,,2013-02-17 10:51:00,
2013-02-17 03:01:00,40.0,16.0,-100.00,ENE,65,1.0,5.0,37,-99.99,,,-99.99,,2013-02-17 11:01:00,
2013-02-17 03:11:00,39.0,15.0,-100.00,North,7,1.0,4.0,37,-99.99,,,-99.99,,2013-02-17 11:11:00,
2013-02-17 03:21:00,39.0,16.0,-100.00,ENE,60,1.0,3.0,38,-99.99,,,-99.99,,2013-02-17 11:21:00,
2013-02-17 03:32:00,39.0,16.0,-100.00,West,263,2.0,10.0,39,-99.99,,,-99.99,,2013-02-17 11:32:00,
2013-02-17 03:41:00,39.0,16.0,-100.00,West,263,2.0,10.0,39,-99.99,,,-99.99,,2013-02-17 11:41:00,
2013-02-17 03:52:00,35.0,16.0,-100.00,South,174,2.0,3.0,46,-99.99,,,-99.99,,2013-02-17 11:52:00,
2013-02-17 04:02:00,34.0,16.0,-100.00,East,90,0.0,2.0,48,-99.99,,,-99.99,,2013-02-17 12:02:00,
2013-02-17 04:11:00,34.0,16.0,-100.00,East,90,0.0,2.0,48,-99.99,,,-99.99,,2013-02-17 12:11:00,
2013-02-17 04:22:00,37.0,16.0,-100.00,NNW,342,3.0,5.0,41,-99.99,,,-99.99,,2013-02-17 12:22:00,
2013-02-17 04:31:00,39.0,16.0,-100.00,North,4,3.0,5.0,39,-99.99,,,-99.99,,2013-02-17 12:31:00,
2013-02-17 04:42:00,37.0,16.0,-100.00,NNE,28,2.0,5.0,41,-99.99,,,-99.99,,2013-02-17 12:42:00,
2013-02-17 04:52:00,39.0,16.0,-100.00,NNW,332,1.0,4.0,38,-99.99,,,-99.99,,2013-02-17 12:52:00,
2013-02-17 05:01:00,41.0,13.0,-100.00,NNW,332,5.0,8.0,32,-99.99,,,-99.99,,2013-02-17 13:01:00,
2013-02-17 05:11:00,40.0,14.0,-100.00,NNW,341,3.0,6.0,34,-99.99,,,-99.99,,2013-02-17 13:11:00,
2013-02-17 05:21:00,40.0,15.0,-100.00,NNE,22,2.0,6.0,35,-99.99,,,-99.99,,2013-02-17 13:21:00,
2013-02-17 05:32:00,39.0,15.0,-100.00,NNE,23,2.0,5.0,37,-99.99,,,-99.99,,2013-02-17 13:32:00,
2013-02-17 05:41:00,39.0,15.0,-100.00,NNE,23,2.0,5.0,37,-99.99,,,-99.99,,2013-02-17 13:41:00,
2013-02-17 05:51:00,41.0,15.0,-100.00,North,5,4.0,8.0,34,-99.99,,,-99.99,,2013-02-17 13:51:00,
2013-02-17 06:01:00,40.0,15.0,-100.00,North,1,4.0,10.0,35,-99.99,,,-99.99,,2013-02-17 14:01:00,
2013-02-17 06:11:00,41.0,15.0,-100.00,NNW,339,8.0,12.0,34,-99.99,,,-99.99,,2013-02-17 14:11:00,
2013-02-17 06:21:00,40.0,15.0,-100.00,NNW,343,6.0,9.0,35,-99.99,,,-99.99,,2013-02-17 14:21:00,
2013-02-17 06:32:00,39.0,15.0,-100.00,NNE,18,4.0,9.0,37,-99.99,,,-99.99,,2013-02-17 14:32:00,
2013-02-17 06:42:00,40.0,15.0,-100.00,North,355,7.0,11.0,35,-99.99,,,-99.99,,2013-02-17 14:42:00,
2013-02-17 06:52:00,41.0,13.0,-100.00,NNW,341,10.0,14.0,32,-99.99,,,-99.99,,2013-02-17 14:52:00,
2013-02-17 07:01:00,42.0,14.0,-100.00,NNW,336,9.0,12.0,32,-99.99,,,-99.99,,2013-02-17 15:01:00,
2013-02-17 07:11:00,42.0,14.0,-100.00,NNW,334,9.0,13.0,31,-99.99,,,-99.99,,2013-02-17 15:11:00,
2013-02-17 07:21:00,42.0,13.0,-100.00,NNW,338,10.0,13.0,30,-99.99,,,-99.99,,2013-02-17 15:21:00,
2013-02-17 07:31:00,42.0,13.0,-100.00,NNW,343,9.0,13.0,30,-99.99,,,-99.99,,2013-02-17 15:31:00,
2013-02-17 07:41:00,41.0,15.0,-100.00,NE,38,5.0,11.0,34,-99.99,,,-99.99,,2013-02-17 15:41:00,
2013-02-17 07:52:00,40.0,15.0,-100.00,NNE,28,2.0,6.0,36,-99.99,,,-99.99,,2013-02-17 15:52:00,
2013-02-17 08:01:00,41.0,15.0,-100.00,NE,45,3.0,5.0,35,-99.99,,,-99.99,,2013-02-17 16:01:00,
2013-02-17 08:11:00,41.0,16.0,-100.00,East,93,2.0,4.0,36,-99.99,,,-99.99,,2013-02-17 16:11:00,
2013-02-17 08:21:00,43.0,17.0,-100.00,SE,137,1.0,2.0,35,-99.99,,,-99.99,,2013-02-17 16:21:00,
2013-02-17 08:31:00,44.0,18.0,-100.00,South,179,2.0,3.0,35,-99.99,,,-99.99,,2013-02-17 16:31:00,
2013-02-17 08:41:00,44.0,19.0,-100.00,South,190,3.0,4.0,36,-99.99,,,-99.99,,2013-02-17 16:41:00,
2013-02-17 08:51:00,46.0,19.0,-100.00,SSE,168,2.0,3.0,33,-99.99,,,-99.99,,2013-02-17 16:51:00,
2013-02-17 09:02:00,49.0,20.0,-100.00,South,178,1.0,3.0,31,-99.99,,,-99.99,,2013-02-17 17:02:00,
2013-02-17 09:11:00,50.0,20.0,-100.00,South,188,3.0,6.0,30,-99.99,,,-99.99,,2013-02-17 17:11:00,
2013-02-17 09:21:00,50.0,18.0,-100.00,South,176,3.0,5.0,28,-99.99,,,-99.99,,2013-02-17 17:21:00,
2013-02-17 09:31:00,52.0,18.0,-100.00,South,175,2.0,4.0,26,-99.99,,,-99.99,,2013-02-17 17:31:00,
2013-02-17 09:41:00,54.0,17.0,-100.00,South,191,4.0,7.0,23,-99.99,,,-99.99,,2013-02-17 17:41:00,
2013-02-17 09:52:00,55.0,16.0,-100.00,South,176,6.0,11.0,21,-99.99,,,-99.99,,2013-02-17 17:52:00,
2013-02-17 10:01:00,56.0,14.0,-100.00,SSE,168,5.0,8.0,19,-99.99,,,-99.99,,2013-02-17 18:01:00,
2013-02-17 10:11:00,57.0,14.0,-100.00,SSE,164,5.0,15.0,18,-99.99,,,-99.99,,2013-02-17 18:11:00,
2013-02-17 10:21:00,59.0,13.0,-100.00,WNW,291,4.0,8.0,16,-99.99,,,-99.99,,2013-02-17 18:21:00,
2013-02-17 10:33:00,59.0,13.0,-100.00,WSW,249,8.0,19.0,16,-99.99,,,-99.99,,2013-02-17 18:33:00,
2013-02-17 10:42:00,59.0,11.0,-100.00,WSW,248,8.0,14.0,15,-99.99,,,-99.99,,2013-02-17 18:42:00,
2013-02-17 10:52:00,59.0,11.0,-100.00,WSW,244,7.0,12.0,15,-99.99,,,-99.99,,2013-02-17 18:52:00,
2013-02-17 11:01:00,59.0,11.0,-100.00,WSW,238,7.0,14.0,15,-99.99,,,-99.99,,2013-02-17 19:01:00,
2013-02-17 11:11:00,59.0,11.0,-100.00,WSW,244,9.0,16.0,15,-99.99,,,-99.99,,2013-02-17 19:11:00,
2013-02-17 11:21:00,59.0,10.0,-100.00,WSW,245,9.0,14.0,14,-99.99,,,-99.99,,2013-02-17 19:21:00,
2013-02-17 11:32:00,60.0,12.0,-100.00,WSW,247,8.0,15.0,15,-99.99,,,-99.99,,2013-02-17 19:32:00,
2013-02-17 11:41:00,60.0,11.0,-100.00,West,264,7.0,14.0,14,-99.99,,,-99.99,,2013-02-17 19:41:00,
2013-02-17 11:51:00,61.0,11.0,-100.00,West,277,7.0,13.0,14,-99.99,,,-99.99,,2013-02-17 19:51:00,
2013-02-17 12:01:00,60.0,11.0,-100.00,West,281,10.0,22.0,14,-99.99,,,-99.99,,2013-02-17 20:01:00,
2013-02-17 12:11:00,60.0,12.0,-100.00,WNW,290,9.0,17.0,15,-99.99,,,-99.99,,2013-02-17 20:11:00,
2013-02-17 12:21:00,60.0,12.0,-100.00,WNW,284,9.0,17.0,15,-99.99,,,-99.99,,2013-02-17 20:21:00,
2013-02-17 12:31:00,60.0,12.0,-100.00,WNW,301,9.0,16.0,15,-99.99,,,-99.99,,2013-02-17 20:31:00,
2013-02-17 12:42:00,61.0,14.0,-100.00,WNW,295,7.0,13.0,16,-99.99,,,-99.99,,2013-02-17 20:42:00,
2013-02-17 12:52:00,61.0,14.0,-100.00,West,276,7.0,17.0,16,-99.99,,,-99.99,,2013-02-17 20:52:00,
2013-02-17 13:01:00,61.0,16.0,-100.00,WSW,250,9.0,18.0,17,-99.99,,,-99.99,,2013-02-17 21:01:00,
2013-02-17 13:11:00,60.0,15.0,-100.00,WSW,246,12.0,18.0,17,-99.99,,,-99.99,,2013-02-17 21:11:00,
2013-02-17 13:21:00,60.0,16.0,-100.00,WSW,247,11.0,24.0,18,-99.99,,,-99.99,,2013-02-17 21:21:00,
2013-02-17 13:31:00,60.0,19.0,-100.00,WSW,242,11.0,18.0,20,-99.99,,,-99.99,,2013-02-17 21:31:00,
2013-02-17 13:41:00,60.0,19.0,-100.00,SW,236,13.0,19.0,20,-99.99,,,-99.99,,2013-02-17 21:41:00,
2013-02-17 13:52:00,60.0,20.0,-100.00,WSW,258,10.0,19.0,21,-99.99,,,-99.99,,2013-02-17 21:52:00,
2013-02-17 14:01:00,60.0,19.0,-100.00,WNW,292,10.0,17.0,20,-99.99,,,-99.99,,2013-02-17 22:01:00,
2013-02-17 14:11:00,60.0,22.0,-100.00,West,260,10.0,17.0,23,-99.99,,,-99.99,,2013-02-17 22:11:00,
2013-02-17 14:21:00,60.0,23.0,-100.00,WSW,246,10.0,17.0,24,-99.99,,,-99.99,,2013-02-17 22:21:00,
2013-02-17 14:32:00,60.0,25.0,-100.00,WSW,248,12.0,19.0,26,-99.99,,,-99.99,,2013-02-17 22:32:00,
2013-02-17 14:41:00,59.0,25.0,-100.00,WSW,251,12.0,17.0,27,-99.99,,,-99.99,,2013-02-17 22:41:00,
2013-02-17 14:52:00,60.0,25.0,-100.00,WSW,249,11.0,20.0,26,-99.99,,,-99.99,,2013-02-17 22:52:00,
2013-02-17 15:01:00,59.0,23.0,-100.00,WSW,242,11.0,18.0,25,-99.99,,,-99.99,,2013-02-17 23:01:00,
2013-02-17 15:11:00,59.0,25.0,-100.00,WSW,252,12.0,23.0,27,-99.99,,,-99.99,,2013-02-17 23:11:00,
2013-02-17 15:21:00,59.0,25.0,-100.00,WSW,241,13.0,20.0,27,-99.99,,,-99.99,,2013-02-17 23:21:00,
2013-02-17 15:31:00,59.0,26.0,-100.00,West,262,10.0,20.0,28,-99.99,,,-99.99,,2013-02-17 23:31:00,
2013-02-17 15:41:00,59.0,26.0,-100.00,West,262,10.0,19.0,28,-99.99,,,-99.99,,2013-02-17 23:41:00,
2013-02-17 15:52:00,58.0,27.0,-100.00,West,277,10.0,18.0,30,-99.99,,,-99.99,,2013-02-17 23:52:00,
2013-02-17 16:01:00,58.0,27.0,-100.00,West,277,10.0,18.0,30,-99.99,,,-99.99,,2013-02-18 00:01:00,
2013-02-17 16:11:00,58.0,28.0,-100.00,WSW,242,10.0,18.0,31,-99.99,,,-99.99,,2013-02-18 00:11:00,
2013-02-17 16:22:00,58.0,28.0,-100.00,WSW,246,9.0,15.0,32,-99.99,,,-99.99,,2013-02-18 00:22:00,
2013-02-17 16:31:00,57.0,29.0,-100.00,WSW,244,10.0,15.0,34,-99.99,,,-99.99,,2013-02-18 00:31:00,
2013-02-17 16:41:00,56.0,29.0,-100.00,WSW,247,9.0,15.0,36,-99.99,,,-99.99,,2013-02-18 00:41:00,
2013-02-17 16:52:00,56.0,30.0,-100.00,WSW,239,9.0,15.0,37,-99.99,,,-99.99,,2013-02-18 00:52:00,
2013-02-17 17:01:00,55.0,29.0,-100.00,WSW,255,7.0,11.0,37,-99.99,,,-99.99,,2013-02-18 01:01:00,
2013-02-17 17:11:00,55.0,26.0,-100.00,WSW,251,7.0,11.0,33,-99.99,,,-99.99,,2013-02-18 01:11:00,
2013-02-17 17:21:00,54.0,31.0,-100.00,SW,231,7.0,10.0,41,-99.99,,,-99.99,,2013-02-18 01:21:00,
2013-02-17 17:31:00,54.0,31.0,-100.00,SW,236,7.0,10.0,42,-99.99,,,-99.99,,2013-02-18 01:31:00,
2013-02-17 17:41:00,54.0,31.0,-100.00,SW,236,7.0,10.0,42,-99.99,,,-99.99,,2013-02-18 01:41:00,
2013-02-17 17:51:00,51.0,29.0,-100.00,SSW,213,4.0,6.0,42,-99.99,,,-99.99,,2013-02-18 01:51:00,
2013-02-17 18:01:00,51.0,29.0,-100.00,SSW,213,4.0,6.0,42,-99.99,,,-99.99,,2013-02-18 02:01:00,
2013-02-17 18:11:00,49.0,30.0,-100.00,NW,311,1.0,2.0,47,-99.99,,,-99.99,,2013-02-18 02:11:00,
2013-02-17 18:21:00,48.0,30.0,-100.00,NW,321,2.0,4.0,49,-99.99,,,-99.99,,2013-02-18 02:21:00,
2013-02-17 18:32:00,46.0,30.0,-100.00,North,350,3.0,5.0,53,-99.99,,,-99.99,,2013-02-18 02:32:00,
2013-02-17 18:41:00,46.0,30.0,-100.00,NNW,345,4.0,5.0,54,-99.99,,,-99.99,,2013-02-18 02:41:00,
2013-02-17 18:52:00,46.0,31.0,-100.00,North,355,5.0,7.0,55,-99.99,,,-99.99,,2013-02-18 02:52:00,
2013-02-17 19:01:00,45.0,28.0,-100.00,NW,326,6.0,9.0,51,-99.99,,,-99.99,,2013-02-18 03:01:00,
2013-02-17 19:11:00,45.0,27.0,-100.00,NNW,338,5.0,9.0,48,-99.99,,,-99.99,,2013-02-18 03:11:00,
2013-02-17 19:21:00,45.0,27.0,-100.00,NW,322,6.0,9.0,49,-99.99,,,-99.99,,2013-02-18 03:21:00,
2013-02-17 19:31:00,44.0,28.0,-100.00,NNW,330,6.0,8.0,54,-99.99,,,-99.99,,2013-02-18 03:31:00,
2013-02-17 19:42:00,44.0,27.0,-100.00,NNW,333,6.0,9.0,51,-99.99,,,-99.99,,2013-02-18 03:42:00,
2013-02-17 19:51:00,45.0,24.0,-100.00,NNW,330,7.0,11.0,44,-99.99,,,-99.99,,2013-02-18 03:51:00,
2013-02-17 20:01:00,45.0,24.0,-100.00,NNW,330,7.0,11.0,44,-99.99,,,-99.99,,2013-02-18 04:01:00,
2013-02-17 20:11:00,43.0,25.0,-100.00,NNW,334,7.0,10.0,48,-99.99,,,-99.99,,2013-02-18 04:11:00,
2013-02-17 20:21:00,43.0,24.0,-100.00,North,4,5.0,8.0,46,-99.99,,,-99.99,,2013-02-18 04:21:00,
2013-02-17 20:32:00,42.0,23.0,-100.00,North,1,6.0,10.0,46,-99.99,,,-99.99,,2013-02-18 04:32:00,
2013-02-17 20:41:00,41.0,21.0,-100.00,NNE,33,3.0,7.0,45,-99.99,,,-99.99,,2013-02-18 04:41:00,
2013-02-17 20:51:00,41.0,20.0,-100.00,North,351,6.0,11.0,43,-99.99,,,-99.99,,2013-02-18 04:51:00,
2013-02-17 21:01:00,40.0,20.0,-100.00,North,349,5.0,9.0,45,-99.99,,,-99.99,,2013-02-18 05:01:00,
2013-02-17 21:11:00,41.0,20.0,-100.00,North,349,5.0,9.0,43,-99.99,,,-99.99,,2013-02-18 05:11:00,
2013-02-17 21:21:00,39.0,19.0,-100.00,North,9,4.0,7.0,45,-99.99,,,-99.99,,2013-02-18 05:21:00,
2013-02-17 21:31:00,40.0,19.0,-100.00,North,351,4.0,6.0,43,-99.99,,,-99.99,,2013-02-18 05:31:00,
2013-02-17 21:41:00,39.0,19.0,-100.00,North,349,7.0,12.0,44,-99.99,,,-99.99,,2013-02-18 05:41:00,
2013-02-17 21:52:00,41.0,18.0,-100.00,NNW,335,9.0,13.0,39,-99.99,,,-99.99,,2013-02-18 05:52:00,
2013-02-17 22:02:00,40.0,18.0,-100.00,NNW,347,8.0,12.0,40,-99.99,,,-99.99,,2013-02-18 06:02:00,
2013-02-17 22:11:00,38.0,19.0,-100.00,NE,46,2.0,4.0,46,-99.99,,,-99.99,,2013-02-18 06:11:00,
2013-02-17 22:21:00,37.0,19.0,-100.00,NE,45,2.0,4.0,48,-99.99,,,-99.99,,2013-02-18 06:21:00,
2013-02-17 22:31:00,37.0,19.0,-100.00,NE,45,2.0,4.0,48,-99.99,,,-99.99,,2013-02-18 06:31:00,
2013-02-17 22:41:00,34.0,19.0,-100.00,North,10,2.0,4.0,54,-99.99,,,-99.99,,2013-02-18 06:41:00,
2013-02-17 22:51:00,36.0,19.0,-100.00,NE,40,2.0,4.0,50,-99.99,,,-99.99,,2013-02-18 06:51:00,
2013-02-17 23:01:00,35.0,20.0,-100.00,ENE,57,2.0,4.0,53,-99.99,,,-99.99,,2013-02-18 07:01:00,
2013-02-17 23:11:00,35.0,19.0,-100.00,NNE,32,2.0,4.0,51,-99.99,,,-99.99,,2013-02-18 07:11:00,
2013-02-17 23:21:00,36.0,20.0,-100.00,North,10,2.0,3.0,51,-99.99,,,-99.99,,2013-02-18 07:21:00,
2013-02-17 23:31:00,35.0,19.0,-100.00,ENE,75,2.0,4.0,52,-99.99,,,-99.99,,2013-02-18 07:31:00,
2013-02-17 23:42:00,34.0,19.0,-100.00,East,92,2.0,3.0,53,-99.99,,,-99.99,,2013-02-18 07:42:00,
2013-02-17 23:51:00,33.0,19.0,-100.00,North,355,0.0,1.0,56,-99.99,,,-99.99,,2013-02-18 07:51:00,